Zurück zum Katalog

STARLINK-34923

AktivKommunikationSSO
NORAD 65247·PAYLOAD·🇺🇸 United States

Gestartet Aug 18, 2025 von Vandenberg Space Force Base

Loading…

Nächste Überflüge (nächste 24 Stunden)

TLE

AktuellSource: CelesTrak SupGP

Epoche: Sep 14, 2026, 14:21 UTC

1 65247C 25179N   26257.59840278 -.00011079  00000+0 -34385-3 0  2575
2 65247  97.2832 297.0556 0001108 107.1914 196.4676 15.33451430    13

Verfolge STARLINK-34923 in Echtzeit mit AllMySat

Download on the App Store